[[{"header":{"parameterUnit":"m.s-1","parameterCategory":1,"la1":30.2991,"la2":30.254,"lo1":-89.0895,"lo2":-89.0444,"dy":0.0017,"dx":0.0017,"nx":28,"ny":28,"refTime":"2024-07-15T21:00:00:Z","depth":0,"parameterNumber":2,"parameterNumberName":"U-component_of_WINDS"},"data":[0,0,0,0,0,0,0,0,0,0,0,0,0,0,0,0,0,0,0,0,0,0,0,0,0,0,0,0,0,0,0,0,0,0,0,0,0,0,0,0,0,0,0,0,0,0,0,0,0,0,0,0,0,0,0,0,0,0,0.8319,0.832,0,0.8457,0.8458,0.846,0.8532,0.8532,0.8532,0.8532,0.8674,0.8678,0.8682,0,0,0,0,0,0,0,0,0,0,0,0,0,0.8116,0.8119,0.8318,0.832,0.8322,0.8457,0.8458,0.846,0.8532,0.8532,0.8532,0.8532,0.8673,0.8677,0.8682,0,0,0,0,0,0,0,0,0,0,0,0,0,0.8224,0.812,0.8318,0.8374,0.838,0.8456,0.8459,0.8461,0.8532,0.8532,0.8532,0.8532,0.8672,0.8677,0.8683,0.8714,0,0,0.87,0.8702,0,0,0,0,0,0,0,0,0.8218,0.8231,0.8364,0.837,0.8377,0.8477,0.8439,0.8546,0.8532,0.8474,0.8532,0.8532,0.8609,0.8619,0.8645,0.8721,0.8727,0.87,0.8703,0.8706,0.8707,0,0,0,0,0,0,0,0.821,0.8226,0.8373,0.8366,0.8374,0.8392,0.8407,0.846,0.8539,0.8479,0.8485,0.85,0.8612,0.864,0.8649,0.8729,0.87,0.8705,0.8708,0.871,0.8838,0.8838,0,0,0,0,0,0,0.8194,0.8219,0.8369,0.8377,0.8296,0.8395,0.8413,0.8445,0.8539,0.8553,0.85,0.8503,0.863,0.8642,0.8654,0.8697,0.8706,0.8711,0.8714,0.8838,0.8838,0.8838,0,0,0,0,0,0,0.8189,0.8206,0.8363,0.83,0.8321,0.8399,0.8434,0.8448,0.8475,0.8554,0.8569,0.8513,0.8631,0.8646,0.8699,0.8703,0.8713,0.8719,0.8838,0.8838,0.8838,0.8783,0,0,0,0,0,0,0.8183,0.8204,0.8217,0.83,0.8324,0.8405,0.8435,0.845,0.8484,0.8489,0.857,0.8584,0.8632,0.869,0.8704,0.8711,0.8723,0.8838,0.8838,0.8838,0.8785,0.8782,0.8779,0,0,0,0,0,0.8176,0.8197,0.8217,0.8235,0.8342,0.8405,0.8419,0.8474,0.8484,0.8498,0.8549,0.8581,0.87,0.8695,0.8711,0.872,0.8837,0.8838,0.8838,0.8787,0.8782,0.8779,0,0,0,0,0,0,0.8113,0.8208,0.8233,0.8281,0.8334,0.8417,0.8436,0.8468,0.8519,0.8522,0.8588,0.8606,0.8652,0.8691,0.8683,0.8755,0.8772,0.8776,0.8728,0.8724,0.8721,0.8711,0.8728,0,0,0,0,0,0.8105,0.8148,0.8229,0.8264,0.829,0.8358,0.8387,0.8425,0.8483,0.8506,0.8561,0.8616,0.8666,0.8697,0.8748,0.8791,0.881,0.8805,0.8802,0.8799,0.8801,0.8827,0.8826,0.8838,0.8838,0.8838,0,0,0.8088,0.8146,0.8169,0.8253,0.8299,0.8342,0.8376,0.8421,0.8454,0.8513,0.8565,0.8607,0.8673,0.8721,0.8745,0.8756,0.8802,0.8799,0.8796,0.88,0.8827,0.8825,0.8824,0.8838,0.8838,0.8838,0,0,0.808,0.8128,0.8162,0.8207,0.8276,0.8321,0.8329,0.8408,0.8438,0.8491,0.8536,0.8576,0.8661,0.8706,0.874,0.8748,0.878,0.8763,0.8746,0.877,0.8769,0.8768,0.8771,0.8771,0.8765,0.8765,0.8765,0,0.8051,0.8118,0.8176,0.8218,0.8253,0.8308,0.8343,0.8384,0.8466,0.8489,0.8499,0.8606,0.8655,0.8714,0.8716,0.8741,0.8753,0.8754,0.8764,0.8764,0.8765,0.8768,0.8769,0.8762,0.8762,0.8763,0.8763,0,0.8079,0.8125,0.8144,0.8221,0.8259,0.8297,0.836,0.8391,0.8425,0.8469,0.8523,0.8582,0.8646,0.8662,0.8696,0.8726,0.873,0.8752,0.877,0.876,0.8764,0.8766,0.8758,0.8759,0.876,0.8761,0,0,0.8035,0.8143,0.8149,0.8185,0.8265,0.8301,0.8342,0.8403,0.8428,0.8483,0.8518,0.8588,0.8609,0.8647,0.8686,0.8707,0.871,0.8727,0.8729,0.8721,0.8746,0.8729,0.8729,0.8731,0.8732,0.8732,0.874,0,0.8038,0.8113,0.8166,0.8221,0.8264,0.8316,0.8352,0.8404,0.8446,0.8489,0.8536,0.8584,0.8607,0.8631,0.8654,0.8704,0.8715,0.8705,0.8765,0.8766,0.8746,0.8732,0.8714,0.8718,0.8742,0.8742,0.8743,0,0.8052,0.8104,0.8163,0.8238,0.8258,0.8288,0.8349,0.8389,0.8449,0.8479,0.8521,0.8561,0.8606,0.862,0.8683,0.8674,0.8702,0.873,0.8732,0.8739,0.8753,0.8738,0.8721,0.8722,0.8746,0.8746,0.8745,0,0.8013,0.8099,0.8145,0.8174,0.8262,0.8282,0.832,0.8381,0.8415,0.8467,0.849,0.8547,0.8578,0.8622,0.8676,0.8681,0.8733,0.8752,0.8758,0.8757,0.8767,0.8765,0.8753,0.8785,0.8785,0.8785,0.8785,0,0.8011,0.8045,0.8129,0.8157,0.8196,0.8257,0.8294,0.8336,0.839,0.8427,0.8476,0.851,0.858,0.8623,0.8666,0.8711,0.8725,0.875,0.876,0.8745,0.8742,0.8764,0.8765,0.8785,0.8785,0.8785,0.8785,0,0.7975,0.8032,0.8086,0.8165,0.8186,0.8211,0.8279,0.8309,0.8353,0.84,0.8414,0.8484,0.8537,0.8596,0.8668,0.8697,0.8739,0.8755,0.8718,0.8724,0.8727,0.8726,0.8729,0.8732,0.8761,0.8761,0.8761,0,0.7969,0.7996,0.8078,0.8107,0.8143,0.8189,0.8223,0.8283,0.8317,0.8388,0.8409,0.8465,0.8513,0.8594,0.8652,0.8707,0.8724,0.8722,0.8733,0.8716,0.8724,0.8721,0.8724,0.8718,0.8718,0.8717,0.8717,0,0.7953,0.798,0.8027,0.8085,0.8124,0.8172,0.8222,0.8243,0.8313,0.8349,0.8403,0.844,0.8513,0.8568,0.8631,0.867,0.8705,0.8713,0.8717,0.8701,0.8678,0.869,0.8708,0.8712,0.8713,0.8713,0.8713,0.8713,0.7932,0.7958,0.802,0.8071,0.8115,0.8161,0.8192,0.824,0.8286,0.8351,0.8384,0.8437,0.8497,0.8584,0.8622,0.8665,0.8676,0.8683,0.8684,0.8685,0.868,0.8672,0.8677,0.8677,0.8677,0.8677,0.8678,0,0.7917,0.796,0.8006,0.8075,0.8115,0.8144,0.8201,0.8233,0.8279,0.8332,0.8378,0.844,0.8493,0.8555,0.8612,0.8634,0.8652,0.8647,0.8646,0.8654,0.8667,0.8657,0.8632,0.8632,0.8632,0.8632,0.8632,0.8632,0.7915,0.7961,0.7995,0.8063,0.8106,0.8158,0.8188,0.823,0.8273,0.834,0.8384,0.8424,0.848,0.8542,0.8592,0.8609,0.8628,0.8618,0.8639,0.865,0.8654,0.8657,0.8648,0.8622,0.8622,0.8623,0.8623,0.8623]},{"header":{"parameterUnit":"m.s-1","parameterCategory":1,"la1":30.2991,"la2":30.254,"lo1":-89.0895,"lo2":-89.0444,"dy":0.0017,"dx":0.0017,"nx":28,"ny":28,"refTime":"2024-07-15T21:00:00:Z","depth":0,"parameterNumber":3,"parameterNumberName":"V-component_of_WINDS"},"data":[0,0,0,0,0,0,0,0,0,0,0,0,0,0,0,0,0,0,0,0,0,0,0,0,0,0,0,0,0,0,0,0,0,0,0,0,0,0,0,0,0,0,0,0,0,0,0,0,0,0,0,0,0,0,0,0,0,0,4.8373,4.8373,0,4.8332,4.8331,4.8331,4.8309,4.8309,4.8309,4.8309,4.8261,4.826,4.8259,0,0,0,0,0,0,0,0,0,0,0,0,0,4.8428,4.8427,4.8373,4.8372,4.8372,4.8332,4.8331,4.8331,4.8309,4.8309,4.8309,4.8309,4.8261,4.826,4.8258,0,0,0,0,0,0,0,0,0,0,0,0,0,4.8397,4.8427,4.8373,4.8356,4.8355,4.8332,4.8331,4.8331,4.8309,4.8309,4.8309,4.8309,4.8262,4.826,4.8258,4.8247,0,0,4.8252,4.8252,0,0,0,0,0,0,0,0,4.8399,4.8395,4.8359,4.8358,4.8355,4.8326,4.8333,4.8302,4.8309,4.8326,4.8309,4.8309,4.8282,4.8279,4.8271,4.8245,4.8243,4.8252,4.8251,4.825,4.825,0,0,0,0,0,0,0,4.8401,4.8396,4.8357,4.8359,4.8356,4.8349,4.8345,4.8327,4.8305,4.8325,4.8323,4.8319,4.8281,4.8273,4.8269,4.8242,4.8252,4.8251,4.8249,4.8249,4.8205,4.8205,0,0,0,0,0,0,4.8406,4.8398,4.8358,4.8355,4.8378,4.8349,4.8344,4.8335,4.8305,4.83,4.8319,4.8318,4.8276,4.8272,4.8268,4.8253,4.825,4.8249,4.8247,4.8205,4.8205,4.8205,0,0,0,0,0,0,4.8408,4.8403,4.8359,4.8376,4.837,4.8348,4.8338,4.8334,4.8326,4.8301,4.8296,4.8315,4.8276,4.827,4.8253,4.8251,4.8248,4.8246,4.8205,4.8205,4.8205,4.8224,0,0,0,0,0,0,4.8409,4.8404,4.84,4.8377,4.837,4.8347,4.8338,4.8334,4.8324,4.8322,4.8295,4.8291,4.8275,4.8256,4.8251,4.8248,4.8244,4.8205,4.8205,4.8205,4.8223,4.8224,4.8225,0,0,0,0,0,4.8411,4.8406,4.84,4.8395,4.8365,4.8347,4.8343,4.8327,4.8324,4.8319,4.8303,4.8292,4.8252,4.8254,4.8249,4.8245,4.8205,4.8205,4.8205,4.8223,4.8224,4.8225,0,0,0,0,0,0,4.8428,4.8402,4.8396,4.8383,4.8368,4.8344,4.8338,4.8329,4.8312,4.8311,4.829,4.8284,4.8268,4.8255,4.8258,4.8233,4.8228,4.8226,4.8243,4.8244,4.8245,4.8248,4.8243,0,0,0,0,0,4.843,4.8419,4.8397,4.8387,4.838,4.8361,4.8352,4.8341,4.8323,4.8316,4.8298,4.828,4.8264,4.8253,4.8236,4.8221,4.8215,4.8216,4.8217,4.8218,4.8217,4.8208,4.8209,4.8205,4.8205,4.8205,0,0,4.8434,4.8419,4.8413,4.839,4.8377,4.8365,4.8355,4.8342,4.8332,4.8313,4.8297,4.8283,4.8261,4.8245,4.8237,4.8233,4.8217,4.8218,4.8219,4.8218,4.8208,4.8209,4.8209,4.8205,4.8205,4.8205,0,0,4.8436,4.8424,4.8415,4.8402,4.8383,4.837,4.8368,4.8346,4.8337,4.832,4.8306,4.8293,4.8265,4.825,4.8239,4.8236,4.8224,4.823,4.8236,4.8227,4.8228,4.8228,4.8227,4.8226,4.823,4.823,4.823,0,4.8443,4.8426,4.8411,4.8399,4.8389,4.8374,4.8364,4.8352,4.8328,4.832,4.8317,4.8282,4.8266,4.8247,4.8247,4.8238,4.8234,4.8233,4.8229,4.8229,4.8229,4.8228,4.8227,4.8231,4.823,4.823,4.823,0,4.8435,4.8423,4.8418,4.8398,4.8387,4.8376,4.8358,4.8349,4.8339,4.8326,4.8309,4.829,4.8269,4.8264,4.8253,4.8242,4.8241,4.8234,4.8227,4.8231,4.8229,4.8228,4.8232,4.8232,4.8231,4.8231,0,0,4.8445,4.8418,4.8416,4.8407,4.8385,4.8374,4.8363,4.8345,4.8337,4.8321,4.831,4.8287,4.8281,4.8268,4.8255,4.8248,4.8247,4.8242,4.8241,4.8243,4.8234,4.8239,4.8239,4.824,4.824,4.8239,4.8236,0,4.8443,4.8424,4.841,4.8395,4.8384,4.8369,4.8359,4.8344,4.8331,4.8318,4.8303,4.8288,4.8281,4.8273,4.8265,4.8249,4.8245,4.8249,4.8228,4.8227,4.8234,4.8238,4.8244,4.8241,4.8235,4.8235,4.8235,0,4.8439,4.8426,4.841,4.839,4.8385,4.8376,4.8359,4.8347,4.8329,4.832,4.8307,4.8295,4.828,4.8276,4.8255,4.8258,4.8248,4.8239,4.8238,4.8235,4.8231,4.8235,4.824,4.824,4.8233,4.8234,4.8234,0,4.8448,4.8426,4.8414,4.8406,4.8383,4.8377,4.8366,4.8349,4.8339,4.8323,4.8316,4.8298,4.8288,4.8273,4.8256,4.8254,4.8237,4.8231,4.8228,4.8228,4.8224,4.8225,4.8228,4.8219,4.8219,4.8219,4.8219,0,4.8447,4.8438,4.8418,4.841,4.8399,4.8383,4.8372,4.836,4.8345,4.8334,4.8319,4.8309,4.8287,4.8273,4.8259,4.8244,4.8239,4.8231,4.8227,4.8232,4.8233,4.8225,4.8225,4.8219,4.8219,4.8219,4.8219,0,4.8455,4.8441,4.8427,4.8407,4.8401,4.8394,4.8376,4.8368,4.8355,4.8341,4.8337,4.8316,4.8299,4.8281,4.8257,4.8247,4.8233,4.8228,4.824,4.8238,4.8236,4.8236,4.8234,4.8232,4.8225,4.8225,4.8225,0,4.8456,4.8449,4.8428,4.8421,4.8412,4.84,4.839,4.8374,4.8364,4.8344,4.8338,4.8321,4.8306,4.8279,4.8261,4.8243,4.8237,4.8237,4.8234,4.8239,4.8237,4.8237,4.8236,4.8238,4.8238,4.8238,4.8238,0,4.8458,4.8452,4.844,4.8426,4.8416,4.8403,4.8389,4.8384,4.8364,4.8354,4.8338,4.8327,4.8304,4.8287,4.8267,4.8254,4.8242,4.824,4.8238,4.8243,4.825,4.8246,4.8242,4.824,4.824,4.8239,4.8239,4.8239,4.8462,4.8456,4.8441,4.8428,4.8417,4.8405,4.8396,4.8383,4.837,4.8352,4.8343,4.8327,4.8308,4.828,4.8268,4.8254,4.8251,4.8248,4.8247,4.8247,4.8249,4.8253,4.825,4.825,4.825,4.825,4.825,0,4.8464,4.8454,4.8443,4.8426,4.8415,4.8408,4.8393,4.8384,4.8371,4.8356,4.8343,4.8324,4.8307,4.8288,4.827,4.8263,4.8257,4.8258,4.8258,4.8256,4.8253,4.8256,4.8263,4.8263,4.8263,4.8263,4.8263,4.8263,4.8464,4.8452,4.8444,4.8427,4.8416,4.8402,4.8394,4.8383,4.8371,4.8352,4.8339,4.8327,4.831,4.8291,4.8275,4.827,4.8263,4.8266,4.8259,4.8257,4.8256,4.8255,4.8258,4.8265,4.8265,4.8263,4.8263,4.8263]}]]